ERS 2 DEB

Satellite information

Favourite Embed

Satellite Type and Status

DEBRISIN ORBIT

Key statistics

Satellite ERS 2 DEB at a glance.

Uptime

11194

Days in orbit

Revolutions

≈ 14.5

Per day

Orbit

SSO

Sun Synchronous Orbit

Inclination

98.6

Latest

Satellite identification and parameters

Extended collection of information and parameters for ERS 2 DEB.

Object identification

Identified? True

Debris? True

Object name: ERS 2 DEB

International designator: 1995-021E

Object number (NORAD): 35391

Object ID (CCSDS): 35391

Country: EUROPEAN SPACE AGENCY (ESA)

Current information (Y/N): Y

RCS size: SMALL

Orbital parameters

Period: 99.437 minutes

Inclination: 98.5994 deg

SMA: 7109.844 km

Apoapsis: 735.373 km

Periapsis: 728.046 km

RAAN: 319.5207 deg

Eccentricy: 0.0005153

Argument of periapsis: 338.8492 deg

Mean anomaly: 51.2477 deg

Mean motion: 14.48146934 rev/day

Mean motion (dot): 0.00004437 rev/day2

B* drag term: 0.0012027 1/REarth

Two-line elements (TLE)

Creation date: Dec. 11, 2025, 7:36 a.m.

Reference frame: TEME

Reference center: EARTH

Epoch: Dec. 10, 2025, 9:06 p.m. UTC

TLE line 0: 0 ERS 2 DEB

TLE line 1: 1 35391U 95021E 25344.87921448 .00004437 00000-0 12027-2 0 9991

TLE line 2: 2 35391 98.5994 319.5207 0005153 338.8492 51.2477 14.48146934970427

Live tracking on map

Real-time ground track for satellite ERS 2 DEB.

In-orbit conjunctions

A list of the most updated potential collisions computed for object ERS 2 DEB.

Target Orbit TCA Probability of collision Miss distance Type
COSMOS 2251 DEB LEO 2025-11-01 20:09:26 0.0004350657 48.0 (m) DEBRIS
CZ-4B R/B LEO 2024-11-11 04:29:13 0.0001854443 483.0 (m) ROCKET BODY

Associated space launch

ERS (European Remote Sensing Satellite) are a family of multi-disciplinary Earth Observation Satellites.

ERS 2 DEB was lifted into orbit during the mission ‘Ariane 40 | ERS-2’, on board a Ariane 40 space rocket.

The launch took place on April 21, 1995, 1:44 a.m. from Ariane Launch Area 2.

For more information about the launch, click the button.

Launch to space Ariane 40 | ERS-2
Ariane 40 | ERS-2

Agency: N/A

Status: Launch Successful

Launch date: April 21, 1995, 1:44 a.m. UTC

Rocket: Ariane 40

Launch pad: Ariane Launch Area 2

Location: Guiana Space Centre, French Guiana

...

Latest news about this satellite

News about space launch
Impending European satellite reentry highlights debris mitigation challenges

The impending reentry of a defunct European satellite serves as a reminder of the hazards posed by existing objects even as agencies work to mitigate the growth of orbital debris.

News about space launch
A big European satellite will make an uncontrolled return to Earth Wednesday

What goes up must come down.


Newsletter sign-up

Weekly statistics, charts and insights to help you stay on top of the space industry.